Regional Weather Roundup
Issued by NWS

Home | Current Version | Previous Version | Graphics & Text | Print | Product List | Glossary On
Versions: 1 2 3 4 5 6 7 8 9 10 11 12 13 14 15 16 17 18 19 20 21 22 23 24 25 26 27 28 29 30 31 32 33 34 35 36 37 38 39 40 41 42 43 44 45 46 47 48 49 50
000
ASUS43 KLSX 270207
RWRMO

WEATHER SUMMARY FOR MISSOURI
NATIONAL WEATHER SERVICE SPRINGFIELD MO
800 PM CST FRI DEC 26 2014

NOTE: "FAIR" INDICATES FEW OR NO CLOUDS BELOW 12,000 FEET WITH NO
       SIGNIFICANT WEATHER AND/OR OBSTRUCTIONS TO VISIBILITY.
       CURRENT SKY AND/OR WEATHER CONDITIONS ARE NOT AVAILABLE FOR
       CHILLICOTHE AND FARMINGTON.

MOZ001>031-035>038-043-044-053-054-270300-
...NORTHERN AND WESTERN MISSOURI...

CITY           SKY/WX    TMP DP  RH WIND       PRES   REMARKS
KANSAS CTY INT DRIZZLE   38  34  85 NW6       29.98R
KANSAS C DTWN  CLOUDY    42  34  73 NW6       29.98R
LEE`S SUMMIT   LGT RAIN  42  37  82 N3        29.97R
ST JOSEPH      CLOUDY    37  33  85 N6        29.99R
CHILLICOTHE      N/A     46  40  79 N5        29.97S
KIRKSVILLE     CLOUDY    47  45  93 NW5       29.95R

$$
MOZ066>068-077>081-088>096-101>105-270300-
...SOUTHWEST MISSOURI...

CITY           SKY/WX    TMP DP  RH WIND       PRES   REMARKS
SPRINGFIELD    CLOUDY    49  47  93 S14       29.99R
JOPLIN         CLOUDY    52  51  97 S10       29.98R

$$
MOZ032>034-039>042-045>050-055>058-069>072-270300-
...CENTRAL MISSOURI...

CITY           SKY/WX    TMP DP  RH WIND       PRES   REMARKS
COLUMBIA       LGT RAIN  54  47  77 S15G23    29.98R
JEFFERSON CITY LGT RAIN  53  46  77 S10       29.99R
ROLLA          CLOUDY    50  42  74 S16       30.00R
SEDALIA        CLOUDY    53  48  83 S10       29.96R
WHITEMAN AFB   CLOUDY    53  48  83 S13       29.95R
WARRENSBURG    CLOUDY    46  43  87 CALM      29.95R
OSAGE BEACH    CLOUDY    52  46  82 S9        29.98F

$$
MOZ051-052-059>065-270300-
...EAST CENTRAL MISSOURI...

CITY           SKY/WX    TMP DP  RH WIND       PRES   REMARKS
ST LOUIS INTL  CLOUDY    54  40  59 S10       30.04R
SPIRIT OF STL  CLOUDY    54  41  61 S6        30.02S
ST CHARLES     CLOUDY    52  45  77 S12       30.03R

$$
MOZ072>076-082>087-097>100-106>115-270300-
...SOUTH CENTRAL AND SOUTHEAST MISSOURI...

CITY           SKY/WX    TMP DP  RH WIND       PRES   REMARKS
CAPE GIRARDEAU CLOUDY    50  41  71 SE8       30.13S
FARMINGTON     CLOUDY    48  41  76 SE12      30.09S
POPLAR BLUFF   CLOUDY    50  41  71 S6        30.11R
WEST PLAINS    RAIN      47  40  76 S10       30.06R

$$



USA.gov is the U.S. government's official web portal to all federal, state and local government web resources and services.